This is the latest recevied weather packets stored in our database for station/object TG8ARF-18. If no packets are shown the sender has not sent any weather packets the latest 10 day(s).
| Time | Temp. | Humidity | Pressure | Rain* | Wind** | Luminosity | Snow |
|---|---|---|---|---|---|---|---|
| 1777590179 | 18.89° C | 78% | 1011 hPa | 0 mm | - | - | - |
| 1777589578 | 18.89° C | 79% | 1011 hPa | 0 mm | - | - | - |
| 1777588977 | 18.89° C | 78% | 1011 hPa | 0 mm | - | - | - |
| 1777588377 | 17.78° C | 78% | 1011 hPa | 0 mm | - | - | - |
| 1777587776 | 16.67° C | 78% | 1011 hPa | 0 mm | - | - | - |
| 1777587175 | 15.56° C | 78% | 1011 hPa | 0 mm | - | - | - |
| 1777586575 | 23.33° C | 78% | 1011 hPa | 0 mm | - | - | - |
| 1777585974 | 22.78° C | 79% | 1011 hPa | 0 mm | - | - | - |
| 1777585374 | 19.44° C | 78% | 1011 hPa | 0 mm | - | - | - |
| 1777584773 | 26.11° C | 78% | 1011 hPa | 0 mm | - | - | - |
| 1777584172 | 25.56° C | 76% | 1011 hPa | 0 mm | - | - | - |
| 1777583572 | 25° C | 74% | 1012 hPa | 0 mm | - | - | - |
| 1777582971 | 21.67° C | 74% | 1012 hPa | 0 mm | - | - | - |
| 1777582371 | 20° C | 76% | 1012 hPa | 0 mm | - | - | - |
| 1777581770 | 18.89° C | 76% | 1012 hPa | 0 mm | - | - | - |
| 1777581169 | 21.11° C | 76% | 1012 hPa | 0 mm | - | - | - |
| 1777580568 | 21.11° C | 76% | 1012 hPa | 0 mm | - | - | - |
| 1777579968 | 20° C | 76% | 1012 hPa | 0 mm | - | - | - |
| 1777579367 | 20.56° C | 76% | 1012 hPa | 0 mm | - | - | - |
| 1777578766 | 21.11° C | 74% | 1012 hPa | 0 mm | - | - | - |
| 1777578166 | 21.67° C | 72% | 1012 hPa | 0 mm | - | - | - |
| 1777577565 | 21.67° C | 72% | 1012 hPa | 0 mm | - | - | - |
| 1777576965 | 22.78° C | 69% | 1012 hPa | 0 mm | - | - | - |
| 1777576364 | 21.67° C | 69% | 1012 hPa | 0 mm | - | - | - |
| 1777575763 | 21.67° C | 69% | 1012 hPa | 0 mm | - | - | - |
* Rain latest hour (hover to see other rain measurements)
** Current wind speed in m/s (hover to see current wind gust speed)